Tracking 29892 objects as of 21-Nov-2024
HD Live streaming from Space Station
objects crossing your sky now

STARLINK-32440

Track STARLINK-32440 now!
10-day predictions
STARLINK-32440 is classified as:


NORAD ID: 61714
Int'l Code: 2024-196H
Perigee: 371.0 km
Apogee: 372.2 km
Inclination: 53.2 °
Period: 91.8 minutes
Semi major axis: 6742 km
RCS: Unknown
Launch date: October 30, 2024
Source: United States (US)
Launch site: AIR FORCE EASTERN TEST RANGE (AFETR)
Your satellite tracking list
Your tracking list is empty




NASA's NSSDC Master Catalog

Two Line Element Set (TLE):
1 61714U 24196H   24325.91668981 -.01382760  00000-0 -13787-1 0  9991
2 61714  53.1595 147.6716 0000874  60.3918 158.1794 15.68054081  4273
Source of the keplerian elements: AFSPC